| time (UTC) | temp C | wind direction | speed KPH | gust KPH | rain 1hr cm | rain 24hr cm | rain mn cm | humidity % | barometer mb |
| 20260509064558 | 16 | 0 | 0.0 | 3.2 | 0.00 | 0.00 | 0.00 | 89 | 1014.6 |
| 20260509064034 | 16 | 0 | 1.6 | 3.2 | 0.00 | 0.00 | 0.00 | 89 | 1014.6 |
| 20260509063531 | 16 | 270 | 0.0 | 3.2 | 0.00 | 0.00 | 0.00 | 89 | 1014.5 |
| 20260509063050 | 16 | 270 | 0.0 | 3.2 | 0.00 | 0.00 | 0.00 | 88 | 1014.6 |
| 20260509062534 | 16 | 0 | 0.0 | 4.8 | 0.00 | 0.00 | 0.00 | 88 | 1014.6 |
| 20260509062035 | 16 | 0 | 0.0 | 6.4 | 0.00 | 0.00 | 0.00 | 88 | 1014.6 |
| 20260509061547 | 16 | 270 | 0.0 | 6.4 | 0.00 | 0.00 | 0.00 | 88 | 1014.6 |
| 20260509061033 | 16 | 225 | 1.6 | 4.8 | 0.00 | 0.00 | 0.00 | 88 | 1014.6 |
| 20260509060532 | 16 | 306 | 0.0 | 3.2 | 0.00 | 0.00 | 0.00 | 88 | 1014.6 |
| 20260509060048 | 16 | 0 | 0.0 | 3.2 | 0.00 | 0.00 | 0.00 | 88 | 1014.6 |
| 20260509055533 | 16 | 256 | 0.0 | 0.0 | 0.00 | 0.00 | 0.00 | 88 | 1014.6 |
| 20260509055031 | 16 | 0 | 0.0 | 0.0 | 0.00 | 0.00 | 0.00 | 88 | 1014.5 |
| 20260509054554 | 16 | 0 | 0.0 | 0.0 | 0.00 | 0.00 | 0.00 | 88 | 1014.6 |
| 20260509054032 | 16 | 0 | 0.0 | 3.2 | 0.00 | 0.00 | 0.00 | 88 | 1014.6 |
| 20260509053532 | 16 | 0 | 0.0 | 3.2 | 0.00 | 0.00 | 0.00 | 88 | 1014.7 |
| 20260509053044 | 16 | 0 | 0.0 | 1.6 | 0.00 | 0.00 | 0.00 | 88 | 1014.7 |
| 20260509052531 | 16 | 0 | 0.0 | 3.2 | 0.00 | 0.00 | 0.00 | 88 | 1014.7 |
| 20260509052031 | 16 | 0 | 0.0 | 3.2 | 0.00 | 0.00 | 0.00 | 88 | 1014.7 |
| 20260509051549 | 16 | 0 | 0.0 | 3.2 | 0.00 | 0.00 | 0.00 | 88 | 1014.8 |
| 20260509051031 | 16 | 299 | 0.0 | 3.2 | 0.00 | 0.00 | 0.00 | 88 | 1014.8 |
| 20260509050534 | 16 | 0 | 0.0 | 3.2 | 0.00 | 0.00 | 0.00 | 88 | 1014.8 |
| 20260509050047 | 16 | 0 | 0.0 | 3.2 | 0.00 | 0.00 | 0.00 | 88 | 1014.8 |
| 20260509045531 | 16 | 218 | 0.0 | 3.2 | 0.00 | 0.00 | 0.00 | 88 | 1014.8 |
| 20260509045033 | 16 | 0 | 0.0 | 3.2 | 0.00 | 0.00 | 0.00 | 88 | 1014.8 |
| 20260509044546 | 16 | 218 | 0.0 | 6.4 | 0.00 | 0.00 | 0.00 | 88 | 1014.7 |
| 20260509044031 | 16 | 218 | 1.6 | 6.4 | 0.00 | 0.00 | 0.00 | 88 | 1014.7 |
| 20260509043532 | 16 | 221 | 3.2 | 6.4 | 0.00 | 0.00 | 0.00 | 88 | 1014.7 |
| 20260509043057 | 16 | 215 | 1.6 | 4.8 | 0.00 | 0.00 | 0.00 | 88 | 1014.6 |
| 20260509042535 | 16 | 217 | 1.6 | 4.8 | 0.00 | 0.00 | 0.00 | 88 | 1014.6 |
| 20260509042035 | 16 | 251 | 0.0 | 4.8 | 0.00 | 0.00 | 0.00 | 88 | 1014.6 |
| 20260509041551 | 16 | 251 | 1.6 | 4.8 | 0.00 | 0.00 | 0.00 | 88 | 1014.6 |
| 20260509041036 | 16 | 306 | 1.6 | 4.8 | 0.00 | 0.00 | 0.00 | 88 | 1014.5 |
| 20260509040537 | 16 | 273 | 0.0 | 4.8 | 0.00 | 0.00 | 0.00 | 88 | 1014.4 |
| 20260509040049 | 16 | 0 | 1.6 | 4.8 | 0.00 | 0.00 | 0.00 | 88 | 1014.5 |
| 20260509035539 | 16 | 0 | 0.0 | 4.8 | 0.00 | 0.00 | 0.00 | 88 | 1014.4 |
| 20260509035033 | 16 | 270 | 0.0 | 3.2 | 0.00 | 0.00 | 0.00 | 88 | 1014.4 |
| 20260509034550 | 16 | 329 | 0.0 | 3.2 | 0.00 | 0.00 | 0.00 | 88 | 1014.3 |
| 20260509034031 | 16 | 0 | 0.0 | 3.2 | 0.00 | 0.00 | 0.00 | 88 | 1014.3 |
| 20260509033535 | 16 | 0 | 0.0 | 3.2 | 0.00 | 0.00 | 0.00 | 88 | 1014.2 |
| 20260509033052 | 16 | 15 | 0.0 | 4.8 | 0.00 | 0.00 | 0.00 | 88 | 1014.2 |
| 20260509032536 | 16 | 0 | 0.0 | 4.8 | 0.00 | 0.00 | 0.00 | 88 | 1014.1 |
| 20260509032035 | 16 | 309 | 1.6 | 4.8 | 0.00 | 0.00 | 0.00 | 88 | 1014.1 |
| 20260509031553 | 16 | 0 | 0.0 | 6.4 | 0.00 | 0.00 | 0.00 | 88 | 1014.1 |
| 20260509031035 | 16 | 285 | 1.6 | 6.4 | 0.00 | 0.00 | 0.00 | 87 | 1014.1 |
| 20260509030536 | 16 | 275 | 1.6 | 6.4 | 0.00 | 0.00 | 0.00 | 87 | 1014.2 |
| 20260509030045 | 16 | 276 | 1.6 | 6.4 | 0.00 | 0.00 | 0.00 | 87 | 1014.1 |
| 20260509025535 | 16 | 261 | 3.2 | 6.4 | 0.00 | 0.00 | 0.00 | 87 | 1014.1 |
| 20260509025035 | 16 | 253 | 1.6 | 9.7 | 0.00 | 0.00 | 0.00 | 87 | 1014.0 |
| 20260509024546 | 16 | 275 | 3.2 | 9.7 | 0.00 | 0.00 | 0.00 | 86 | 1014.0 |
| 20260509024036 | 16 | 261 | 3.2 | 6.4 | 0.00 | 0.00 | 0.00 | 86 | 1014.0 |
| 20260509023532 | 16 | 0 | 1.6 | 6.4 | 0.00 | 0.00 | 0.00 | 86 | 1014.0 |
| 20260509023041 | 16 | 284 | 1.6 | 8.0 | 0.00 | 0.00 | 0.00 | 86 | 1013.9 |
| 20260509022532 | 16 | 252 | 3.2 | 9.7 | 0.00 | 0.00 | 0.00 | 85 | 1013.9 |
| 20260509022035 | 17 | 323 | 4.8 | 9.7 | 0.00 | 0.00 | 0.00 | 85 | 1013.9 |
| 20260509021544 | 17 | 281 | 3.2 | 8.0 | 0.00 | 0.00 | 0.00 | 85 | 1013.8 |
| 20260509021035 | 17 | 259 | 3.2 | 9.7 | 0.00 | 0.00 | 0.00 | 84 | 1013.7 |
| 20260509020535 | 17 | 309 | 3.2 | 9.7 | 0.00 | 0.00 | 0.00 | 84 | 1013.7 |
| 20260509020047 | 17 | 299 | 3.2 | 11.3 | 0.00 | 0.00 | 0.00 | 84 | 1013.6 |
| 20260509015535 | 17 | 251 | 3.2 | 11.3 | 0.00 | 0.00 | 0.00 | 84 | 1013.6 |
| 20260509015036 | 17 | 321 | 3.2 | 6.4 | 0.00 | 0.00 | 0.00 | 83 | 1013.5 |
| 20260509014546 | 17 | 313 | 1.6 | 9.7 | 0.00 | 0.00 | 0.00 | 83 | 1013.5 |
| 20260509014035 | 17 | 320 | 4.8 | 9.7 | 0.00 | 0.00 | 0.00 | 82 | 1013.5 |
| 20260509013535 | 18 | 352 | 3.2 | 8.0 | 0.00 | 0.00 | 0.00 | 82 | 1013.5 |
| 20260509013055 | 18 | 246 | 3.2 | 8.0 | 0.00 | 0.00 | 0.00 | 81 | 1013.6 |
| 20260509012531 | 18 | 225 | 3.2 | 11.3 | 0.00 | 0.00 | 0.00 | 81 | 1013.6 |
| 20260509012031 | 18 | 271 | 4.8 | 11.3 | 0.00 | 0.00 | 0.00 | 80 | 1013.5 |
| 20260509011546 | 18 | 309 | 3.2 | 6.4 | 0.00 | 0.00 | 0.00 | 80 | 1013.5 |
| 20260509011034 | 18 | 299 | 3.2 | 12.9 | 0.00 | 0.00 | 0.00 | 79 | 1013.5 |
| 20260509010532 | 19 | 300 | 1.6 | 12.9 | 0.00 | 0.00 | 0.00 | 78 | 1013.5 |
| 20260509010047 | 19 | 288 | 3.2 | 9.7 | 0.00 | 0.00 | 0.00 | 77 | 1013.6 |
| 20260509005534 | 20 | 293 | 4.8 | 9.7 | 0.00 | 0.00 | 0.00 | 77 | 1013.5 |
| 20260509005031 | 20 | 274 | 1.6 | 9.7 | 0.00 | 0.00 | 0.00 | 77 | 1013.5 |
| 20260509004558 | 20 | 313 | 4.8 | 9.7 | 0.00 | 0.00 | 0.00 | 77 | 1013.6 |
| 20260509004032 | 20 | 221 | 4.8 | 9.7 | 0.00 | 0.00 | 0.00 | 77 | 1013.5 |
| 20260509003532 | 20 | 250 | 3.2 | 9.7 | 0.00 | 0.00 | 0.00 | 77 | 1013.5 |
| 20260509003047 | 20 | 248 | 1.6 | 9.7 | 0.00 | 0.00 | 0.00 | 77 | 1013.4 |
| 20260509002531 | 20 | 305 | 4.8 | 9.7 | 0.00 | 0.00 | 0.00 | 77 | 1013.4 |
| 20260509002032 | 20 | 273 | 3.2 | 12.9 | 0.00 | 0.00 | 0.00 | 78 | 1013.4 |
| 20260509001552 | 20 | 317 | 4.8 | 12.9 | 0.00 | 0.00 | 0.00 | 77 | 1013.5 |
| 20260509001031 | 20 | 252 | 4.8 | 12.9 | 0.00 | 0.00 | 0.00 | 76 | 1013.6 |
| 20260509000531 | 20 | 311 | 4.8 | 11.3 | 0.00 | 0.00 | 0.00 | 76 | 1013.7 |
| 20260509000049 | 20 | 309 | 4.8 | 12.9 | 0.00 | 0.00 | 0.00 | 76 | 1013.8 |
| 20260508235531 | 20 | 252 | 6.4 | 12.9 | 0.00 | 0.00 | 0.00 | 77 | 1013.8 |
| 20260508235032 | 20 | 278 | 6.4 | 12.9 | 0.00 | 0.00 | 0.00 | 77 | 1013.8 |
| 20260508234545 | 20 | 251 | 4.8 | 16.1 | 0.00 | 0.00 | 0.00 | 77 | 1013.8 |
| 20260508234033 | 20 | 315 | 6.4 | 16.1 | 0.00 | 0.00 | 0.00 | 77 | 1013.9 |
| 20260508233532 | 20 | 296 | 4.8 | 14.5 | 0.00 | 0.00 | 0.00 | 76 | 1013.8 |
| 20260508233045 | 20 | 270 | 4.8 | 16.1 | 0.00 | 0.00 | 0.00 | 77 | 1013.8 |
| 20260508232531 | 20 | 250 | 6.4 | 16.1 | 0.00 | 0.00 | 0.00 | 77 | 1013.9 |
| 20260508232032 | 20 | 304 | 6.4 | 14.5 | 0.00 | 0.00 | 0.00 | 77 | 1013.9 |
| 20260508231555 | 20 | 324 | 8.0 | 14.5 | 0.00 | 0.00 | 0.00 | 77 | 1014.0 |
| 20260508231032 | 20 | 242 | 6.4 | 14.5 | 0.00 | 0.00 | 0.00 | 77 | 1014.0 |
| 20260508230531 | 20 | 311 | 6.4 | 16.1 | 0.00 | 0.00 | 0.00 | 77 | 1014.0 |
| 20260508230051 | 20 | 302 | 6.4 | 16.1 | 0.00 | 0.00 | 0.00 | 77 | 1014.1 |
| 20260508225532 | 20 | 317 | 6.4 | 14.5 | 0.00 | 0.00 | 0.00 | 76 | 1014.1 |
| 20260508225032 | 20 | 323 | 6.4 | 16.1 | 0.00 | 0.00 | 0.00 | 77 | 1014.2 |
| 20260508224552 | 20 | 291 | 8.0 | 16.1 | 0.00 | 0.00 | 0.00 | 77 | 1014.2 |
| 20260508224034 | 20 | 286 | 8.0 | 16.1 | 0.00 | 0.00 | 0.00 | 77 | 1014.2 |
| 20260508223534 | 20 | 306 | 8.0 | 16.1 | 0.00 | 0.00 | 0.00 | 76 | 1014.2 |
| 20260508223051 | 20 | 334 | 8.0 | 17.7 | 0.00 | 0.00 | 0.00 | 76 | 1014.3 |
| 20260508222532 | 20 | 222 | 8.0 | 17.7 | 0.00 | 0.00 | 0.00 | 77 | 1014.3 |
| 20260508222032 | 20 | 317 | 8.0 | 16.1 | 0.00 | 0.00 | 0.00 | 77 | 1014.3 |
| 20260508221547 | 20 | 275 | 6.4 | 16.1 | 0.00 | 0.00 | 0.00 | 77 | 1014.4 |
| 20260508221033 | 20 | 298 | 8.0 | 20.9 | 0.00 | 0.00 | 0.00 | 77 | 1014.5 |
| 20260508220531 | 20 | 324 | 8.0 | 20.9 | 0.00 | 0.00 | 0.00 | 76 | 1014.6 |
| 20260508220046 | 20 | 304 | 9.7 | 20.9 | 0.00 | 0.00 | 0.00 | 77 | 1014.6 |
| 20260508215532 | 20 | 235 | 8.0 | 16.1 | 0.00 | 0.00 | 0.00 | 78 | 1014.6 |
| 20260508215032 | 20 | 275 | 9.7 | 16.1 | 0.00 | 0.00 | 0.00 | 77 | 1014.7 |
| 20260508214602 | 20 | 290 | 8.0 | 17.7 | 0.00 | 0.00 | 0.00 | 77 | 1014.6 |
| 20260508214038 | 20 | 269 | 9.7 | 17.7 | 0.00 | 0.00 | 0.00 | 76 | 1014.7 |
| 20260508213535 | 20 | 292 | 8.0 | 17.7 | 0.00 | 0.00 | 0.00 | 77 | 1014.7 |
| 20260508213049 | 20 | 255 | 8.0 | 16.1 | 0.00 | 0.00 | 0.00 | 77 | 1014.6 |
| 20260508212534 | 20 | 272 | 6.4 | 16.1 | 0.00 | 0.00 | 0.00 | 76 | 1014.6 |
| 20260508212035 | 20 | 250 | 9.7 | 17.7 | 0.00 | 0.00 | 0.00 | 75 | 1014.7 |
| 20260508211548 | 20 | 331 | 9.7 | 17.7 | 0.00 | 0.00 | 0.00 | 76 | 1014.6 |
| 20260508211035 | 20 | 279 | 9.7 | 16.1 | 0.00 | 0.00 | 0.00 | 76 | 1014.7 |
| 20260508210535 | 20 | 229 | 9.7 | 17.7 | 0.00 | 0.00 | 0.00 | 76 | 1014.7 |
| 20260508210049 | 20 | 298 | 6.4 | 17.7 | 0.00 | 0.00 | 0.00 | 75 | 1014.7 |
| 20260508205536 | 20 | 322 | 6.4 | 16.1 | 0.00 | 0.00 | 0.00 | 76 | 1014.7 |
| 20260508205032 | 20 | 270 | 8.0 | 14.5 | 0.00 | 0.00 | 0.00 | 75 | 1014.7 |
| 20260508204551 | 20 | 271 | 6.4 | 16.1 | 0.00 | 0.00 | 0.00 | 74 | 1014.7 |
| 20260508204034 | 21 | 257 | 8.0 | 16.1 | 0.00 | 0.00 | 0.00 | 75 | 1014.7 |
| 20260508203531 | 21 | 267 | 8.0 | 16.1 | 0.00 | 0.00 | 0.00 | 75 | 1014.7 |
| 20260508203044 | 21 | 277 | 6.4 | 16.1 | 0.00 | 0.00 | 0.00 | 76 | 1014.7 |
| 20260508202532 | 21 | 269 | 8.0 | 16.1 | 0.00 | 0.00 | 0.00 | 74 | 1014.8 |
| 20260508202035 | 21 | 306 | 6.4 | 14.5 | 0.00 | 0.00 | 0.00 | 74 | 1014.8 |
| 20260508201547 | 21 | 281 | 6.4 | 14.5 | 0.00 | 0.00 | 0.00 | 74 | 1014.8 |
| 20260508201038 | 21 | 263 | 8.0 | 14.5 | 0.00 | 0.00 | 0.00 | 74 | 1014.8 |
| 20260508200535 | 21 | 302 | 4.8 | 12.9 | 0.00 | 0.00 | 0.00 | 75 | 1014.9 |
| 20260508200050 | 21 | 281 | 6.4 | 12.9 | 0.00 | 0.00 | 0.00 | 75 | 1014.8 |
| 20260508195535 | 21 | 310 | 4.8 | 11.3 | 0.00 | 0.00 | 0.00 | 77 | 1014.8 |
| 20260508195035 | 20 | 236 | 4.8 | 12.9 | 0.00 | 0.00 | 0.00 | 76 | 1015.0 |
| 20260508194545 | 20 | 244 | 6.4 | 14.5 | 0.00 | 0.00 | 0.00 | 76 | 1015.1 |
| 20260508194035 | 20 | 311 | 6.4 | 14.5 | 0.00 | 0.00 | 0.00 | 76 | 1015.2 |
| 20260508193535 | 20 | 295 | 6.4 | 12.9 | 0.00 | 0.00 | 0.00 | 76 | 1015.3 |
| 20260508193059 | 20 | 292 | 4.8 | 11.3 | 0.00 | 0.00 | 0.00 | 76 | 1015.3 |
| 20260508192535 | 20 | 248 | 3.2 | 11.3 | 0.00 | 0.00 | 0.00 | 77 | 1015.3 |
| 20260508192038 | 20 | 270 | 3.2 | 12.9 | 0.00 | 0.00 | 0.00 | 78 | 1015.4 |
| 20260508191556 | 20 | 257 | 4.8 | 14.5 | 0.00 | 0.00 | 0.00 | 77 | 1015.4 |
| 20260508191035 | 20 | 275 | 6.4 | 14.5 | 0.00 | 0.00 | 0.00 | 78 | 1015.4 |
| 20260508190532 | 20 | 264 | 4.8 | 12.9 | 0.00 | 0.00 | 0.00 | 78 | 1015.5 |
| 20260508190105 | 20 | 276 | 6.4 | 12.9 | 0.00 | 0.00 | 0.00 | 78 | 1015.5 |
| 20260508185534 | 20 | 278 | 4.8 | 11.3 | 0.00 | 0.00 | 0.00 | 78 | 1015.5 |
| 20260508185031 | 20 | 246 | 3.2 | 11.3 | 0.00 | 0.00 | 0.00 | 78 | 1015.5 |
| 20260508184550 | 20 | 269 | 4.8 | 11.3 | 0.00 | 0.00 | 0.00 | 79 | 1015.6 |
| 20260508184035 | 20 | 257 | 3.2 | 11.3 | 0.00 | 0.00 | 0.00 | 77 | 1015.6 |
| 20260508183535 | 20 | 239 | 4.8 | 11.3 | 0.00 | 0.00 | 0.00 | 78 | 1015.7 |
| 20260508183101 | 20 | 334 | 4.8 | 11.3 | 0.00 | 0.00 | 0.00 | 78 | 1015.7 |
| 20260508182535 | 20 | 252 | 4.8 | 11.3 | 0.00 | 0.00 | 0.00 | 78 | 1015.7 |
| 20260508182035 | 20 | 281 | 3.2 | 11.3 | 0.00 | 0.00 | 0.00 | 78 | 1015.7 |
| 20260508181548 | 20 | 239 | 3.2 | 11.3 | 0.00 | 0.00 | 0.00 | 79 | 1015.8 |
| 20260508181040 | 20 | 273 | 4.8 | 11.3 | 0.00 | 0.00 | 0.00 | 80 | 1015.8 |
| 20260508180535 | 19 | 245 | 1.6 | 8.0 | 0.00 | 0.00 | 0.00 | 80 | 1015.8 |
| 20260508180057 | 19 | 0 | 1.6 | 8.0 | 0.00 | 0.00 | 0.00 | 80 | 1015.9 |
| 20260508175532 | 19 | 265 | 3.2 | 6.4 | 0.00 | 0.00 | 0.00 | 80 | 1016.0 |
| 20260508175032 | 18 | 213 | 1.6 | 6.4 | 0.00 | 0.00 | 0.00 | 80 | 1016.0 |
| 20260508174604 | 18 | 297 | 1.6 | 6.4 | 0.00 | 0.00 | 0.00 | 80 | 1016.0 |
| 20260508174034 | 18 | 273 | 3.2 | 6.4 | 0.00 | 0.00 | 0.00 | 80 | 1016.0 |
| 20260508173535 | 18 | 276 | 0.0 | 4.8 | 0.00 | 0.00 | 0.00 | 81 | 1016.0 |
| 20260508173049 | 18 | 0 | 1.6 | 4.8 | 0.00 | 0.00 | 0.00 | 81 | 1016.0 |
| 20260508172531 | 18 | 0 | 0.0 | 3.2 | 0.00 | 0.00 | 0.00 | 82 | 1016.0 |
| 20260508172037 | 18 | 0 | 0.0 | 3.2 | 0.00 | 0.00 | 0.00 | 83 | 1016.0 |
| 20260508171547 | 17 | 0 | 0.0 | 3.2 | 0.00 | 0.00 | 0.00 | 83 | 1016.1 |
| 20260508171037 | 17 | 0 | 0.0 | 3.2 | 0.00 | 0.00 | 0.00 | 84 | 1016.0 |
| 20260508170535 | 17 | 0 | 0.0 | 3.2 | 0.00 | 0.00 | 0.00 | 84 | 1016.1 |
| 20260508170046 | 17 | 0 | 0.0 | 3.2 | 0.00 | 0.00 | 0.00 | 84 | 1016.1 |
| 20260508165535 | 17 | 284 | 0.0 | 1.6 | 0.00 | 0.00 | 0.00 | 85 | 1016.1 |
| 20260508165035 | 17 | 284 | 0.0 | 1.6 | 0.00 | 0.00 | 0.00 | 85 | 1016.1 |
| 20260508164550 | 17 | 0 | 0.0 | 1.6 | 0.00 | 0.00 | 0.00 | 85 | 1016.2 |
| 20260508164035 | 17 | 0 | 0.0 | 1.6 | 0.00 | 0.00 | 0.00 | 85 | 1016.1 |
| 20260508163537 | 17 | 0 | 0.0 | 3.2 | 0.00 | 0.00 | 0.00 | 86 | 1016.2 |
| 20260508163044 | 16 | 0 | 0.0 | 3.2 | 0.00 | 0.00 | 0.00 | 87 | 1016.2 |
| 20260508162532 | 16 | 0 | 0.0 | 1.6 | 0.00 | 0.00 | 0.00 | 87 | 1016.1 |
| 20260508162033 | 16 | 0 | 0.0 | 1.6 | 0.00 | 0.00 | 0.00 | 87 | 1016.2 |
| 20260508161548 | 16 | 0 | 0.0 | 3.2 | 0.00 | 0.00 | 0.00 | 87 | 1016.2 |
| 20260508161034 | 16 | 0 | 0.0 | 3.2 | 0.00 | 0.00 | 0.00 | 87 | 1016.3 |
| 20260508160534 | 16 | 0 | 0.0 | 3.2 | 0.00 | 0.00 | 0.00 | 87 | 1016.3 |
| 20260508160052 | 16 | 282 | 0.0 | 3.2 | 0.00 | 0.00 | 0.00 | 87 | 1016.2 |
| 20260508155535 | 16 | 303 | 0.0 | 4.8 | 0.00 | 0.00 | 0.00 | 87 | 1016.3 |
| 20260508155035 | 16 | 0 | 0.0 | 4.8 | 0.00 | 0.00 | 0.00 | 88 | 1016.3 |
| 20260508154546 | 16 | 299 | 1.6 | 4.8 | 0.00 | 0.00 | 0.00 | 88 | 1016.3 |
| 20260508154034 | 16 | 310 | 0.0 | 3.2 | 0.00 | 0.00 | 0.00 | 88 | 1016.3 |
| 20260508153535 | 16 | 0 | 0.0 | 3.2 | 0.00 | 0.00 | 0.00 | 88 | 1016.2 |
| 20260508153056 | 16 | 61 | 0.0 | 3.2 | 0.00 | 0.00 | 0.00 | 88 | 1016.2 |
| 20260508152534 | 16 | 5 | 0.0 | 3.2 | 0.00 | 0.00 | 0.00 | 88 | 1016.3 |
| 20260508152034 | 16 | 294 | 0.0 | 3.2 | 0.00 | 0.00 | 0.00 | 88 | 1016.3 |
| 20260508151552 | 16 | 0 | 0.0 | 3.2 | 0.00 | 0.00 | 0.00 | 88 | 1016.3 |
| 20260508151032 | 16 | 294 | 0.0 | 3.2 | 0.00 | 0.00 | 0.00 | 88 | 1016.3 |
| 20260508150535 | 16 | 300 | 0.0 | 3.2 | 0.00 | 0.00 | 0.00 | 88 | 1016.3 |
| 20260508150050 | 16 | 0 | 0.0 | 3.2 | 0.00 | 0.00 | 0.00 | 88 | 1016.2 |
| 20260508145534 | 16 | 249 | 0.0 | 3.2 | 0.00 | 0.00 | 0.00 | 88 | 1016.2 |
| 20260508145036 | 16 | 249 | 0.0 | 3.2 | 0.00 | 0.00 | 0.00 | 88 | 1016.3 |
| 20260508144552 | 16 | 80 | 0.0 | 1.6 | 0.00 | 0.00 | 0.00 | 88 | 1016.2 |
| 20260508144035 | 16 | 0 | 0.0 | 0.0 | 0.00 | 0.00 | 0.00 | 88 | 1016.1 |
| 20260508143535 | 16 | 0 | 0.0 | 1.6 | 0.00 | 0.00 | 0.00 | 89 | 1016.2 |
| 20260508143055 | 16 | 0 | 0.0 | 1.6 | 0.00 | 0.00 | 0.00 | 89 | 1016.2 |
| 20260508142535 | 15 | 0 | 0.0 | 1.6 | 0.00 | 0.00 | 0.00 | 88 | 1016.2 |
| 20260508142035 | 15 | 0 | 0.0 | 3.2 | 0.00 | 0.00 | 0.00 | 88 | 1016.2 |
| 20260508141558 | 15 | 0 | 0.0 | 3.2 | 0.00 | 0.00 | 0.00 | 89 | 1016.1 |
| 20260508141035 | 15 | 0 | 0.0 | 3.2 | 0.00 | 0.00 | 0.00 | 89 | 1016.1 |
| 20260508140534 | 15 | 0 | 0.0 | 3.2 | 0.00 | 0.00 | 0.00 | 89 | 1016.0 |
| 20260508140051 | 15 | 0 | 0.0 | 3.2 | 0.00 | 0.00 | 0.00 | 89 | 1016.0 |
| 20260508135535 | 15 | 0 | 0.0 | 3.2 | 0.00 | 0.00 | 0.00 | 89 | 1016.0 |
| 20260508135036 | 15 | 352 | 0.0 | 3.2 | 0.00 | 0.00 | 0.00 | 89 | 1015.9 |
| 20260508134551 | 15 | 0 | 0.0 | 3.2 | 0.00 | 0.00 | 0.00 | 89 | 1015.9 |
| 20260508134035 | 15 | 0 | 0.0 | 1.6 | 0.00 | 0.00 | 0.00 | 89 | 1015.9 |
| 20260508133535 | 15 | 0 | 0.0 | 3.2 | 0.00 | 0.00 | 0.00 | 89 | 1015.9 |
| 20260508133047 | 15 | 0 | 0.0 | 4.8 | 0.00 | 0.00 | 0.00 | 89 | 1015.9 |
| 20260508132535 | 15 | 0 | 0.0 | 4.8 | 0.00 | 0.00 | 0.00 | 89 | 1015.9 |
| 20260508132034 | 15 | 0 | 0.0 | 1.6 | 0.00 | 0.00 | 0.00 | 88 | 1015.7 |
| 20260508131605 | 15 | 0 | 0.0 | 1.6 | 0.00 | 0.00 | 0.00 | 88 | 1015.7 |
| 20260508131036 | 15 | 0 | 0.0 | 1.6 | 0.00 | 0.00 | 0.00 | 88 | 1015.6 |
| 20260508130538 | 15 | 0 | 0.0 | 1.6 | 0.00 | 0.00 | 0.00 | 88 | 1015.7 |
| 20260508130048 | 15 | 0 | 0.0 | 3.2 | 0.00 | 0.00 | 0.00 | 88 | 1015.6 |
| 20260508125535 | 15 | 0 | 0.0 | 3.2 | 0.00 | 0.00 | 0.00 | 88 | 1015.6 |
| 20260508125034 | 15 | 253 | 0.0 | 3.2 | 0.00 | 0.00 | 0.00 | 88 | 1015.6 |
| 20260508124549 | 15 | 253 | 0.0 | 1.6 | 0.00 | 0.00 | 0.00 | 88 | 1015.6 |
| 20260508124036 | 15 | 0 | 0.0 | 3.2 | 0.00 | 0.00 | 0.00 | 88 | 1015.6 |
| 20260508123533 | 15 | 0 | 0.0 | 3.2 | 0.00 | 0.00 | 0.00 | 88 | 1015.5 |
| 20260508123106 | 15 | 5 | 0.0 | 1.6 | 0.00 | 0.00 | 0.00 | 88 | 1015.5 |
| 20260508122534 | 15 | 0 | 0.0 | 1.6 | 0.00 | 0.00 | 0.00 | 88 | 1015.5 |
| 20260508122031 | 15 | 0 | 0.0 | 3.2 | 0.00 | 0.00 | 0.00 | 88 | 1015.5 |
| 20260508121553 | 15 | 0 | 0.0 | 3.2 | 0.00 | 0.00 | 0.00 | 88 | 1015.5 |
| 20260508121031 | 15 | 0 | 0.0 | 3.2 | 0.00 | 0.00 | 0.00 | 88 | 1015.5 |
| 20260508120534 | 15 | 0 | 0.0 | 1.6 | 0.00 | 0.00 | 0.00 | 88 | 1015.5 |
| 20260508120107 | 15 | 0 | 0.0 | 3.2 | 0.00 | 0.00 | 0.00 | 88 | 1015.5 |
| 20260508115531 | 15 | 0 | 0.0 | 3.2 | 0.00 | 0.00 | 0.00 | 88 | 1015.4 |
| 20260508115034 | 15 | 0 | 0.0 | 3.2 | 0.00 | 0.00 | 0.00 | 88 | 1015.4 |
| 20260508114557 | 16 | 0 | 0.0 | 1.6 | 0.00 | 0.00 | 0.00 | 88 | 1015.4 |
| 20260508114037 | 16 | 0 | 0.0 | 1.6 | 0.00 | 0.00 | 0.00 | 88 | 1015.4 |
| 20260508113535 | 16 | 0 | 0.0 | 1.6 | 0.00 | 0.00 | 0.00 | 88 | 1015.4 |
| 20260508113108 | 16 | 0 | 0.0 | 1.6 | 0.00 | 0.00 | 0.00 | 88 | 1015.4 |
| 20260508112536 | 15 | 0 | 0.0 | 1.6 | 0.00 | 0.00 | 0.00 | 88 | 1015.4 |
| 20260508112033 | 15 | 0 | 0.0 | 1.6 | 0.00 | 0.00 | 0.00 | 88 | 1015.4 |
| 20260508111550 | 16 | 0 | 0.0 | 3.2 | 0.00 | 0.00 | 0.00 | 88 | 1015.5 |
| 20260508111034 | 16 | 0 | 0.0 | 3.2 | 0.00 | 0.00 | 0.00 | 88 | 1015.5 |
| 20260508110535 | 16 | 0 | 0.0 | 3.2 | 0.00 | 0.00 | 0.00 | 88 | 1015.4 |
| 20260508110056 | 16 | 0 | 0.0 | 3.2 | 0.00 | 0.00 | 0.00 | 88 | 1015.4 |
| 20260508105534 | 16 | 223 | 0.0 | 3.2 | 0.00 | 0.00 | 0.00 | 88 | 1015.3 |
| 20260508105034 | 16 | 223 | 0.0 | 3.2 | 0.00 | 0.00 | 0.00 | 88 | 1015.4 |
| 20260508104551 | 16 | 0 | 0.0 | 3.2 | 0.00 | 0.00 | 0.00 | 88 | 1015.4 |
| 20260508104032 | 16 | 0 | 0.0 | 1.6 | 0.00 | 0.00 | 0.00 | 88 | 1015.4 |
| 20260508103532 | 16 | 0 | 0.0 | 1.6 | 0.00 | 0.00 | 0.00 | 88 | 1015.4 |
| 20260508103059 | 16 | 0 | 0.0 | 1.6 | 0.00 | 0.00 | 0.00 | 88 | 1015.4 |
| 20260508102533 | 16 | 0 | 0.0 | 3.2 | 0.00 | 0.00 | 0.00 | 88 | 1015.5 |
| 20260508102032 | 16 | 223 | 0.0 | 3.2 | 0.00 | 0.00 | 0.00 | 88 | 1015.5 |
| 20260508101553 | 16 | 223 | 0.0 | 0.0 | 0.00 | 0.00 | 0.00 | 88 | 1015.6 |
| 20260508101034 | 16 | 0 | 0.0 | 0.0 | 0.00 | 0.00 | 0.00 | 88 | 1015.6 |
| 20260508100532 | 16 | 0 | 0.0 | 1.6 | 0.00 | 0.00 | 0.00 | 88 | 1015.6 |
| 20260508100045 | 16 | 0 | 0.0 | 4.8 | 0.00 | 0.00 | 0.00 | 88 | 1015.6 |
| 20260508095533 | 16 | 0 | 0.0 | 6.4 | 0.00 | 0.00 | 0.00 | 88 | 1015.6 |
| 20260508095038 | 16 | 223 | 1.6 | 6.4 | 0.00 | 0.00 | 0.00 | 88 | 1015.6 |
| 20260508094546 | 16 | 221 | 0.0 | 3.2 | 0.00 | 0.00 | 0.00 | 88 | 1015.6 |
| 20260508094032 | 16 | 0 | 0.0 | 1.6 | 0.00 | 0.00 | 0.00 | 88 | 1015.6 |
| 20260508093532 | 16 | 0 | 0.0 | 1.6 | 0.00 | 0.00 | 0.00 | 88 | 1015.6 |
| 20260508093045 | 16 | 0 | 0.0 | 1.6 | 0.00 | 0.00 | 0.00 | 88 | 1015.6 |
| 20260508092532 | 16 | 0 | 0.0 | 3.2 | 0.00 | 0.00 | 0.00 | 88 | 1015.6 |
| 20260508092032 | 16 | 0 | 0.0 | 3.2 | 0.00 | 0.00 | 0.00 | 88 | 1015.5 |
| 20260508091542 | 16 | 0 | 0.0 | 3.2 | 0.00 | 0.00 | 0.00 | 88 | 1015.6 |
| 20260508091032 | 16 | 0 | 0.0 | 3.2 | 0.00 | 0.00 | 0.00 | 88 | 1015.5 |
| 20260508090533 | 16 | 261 | 0.0 | 3.2 | 0.00 | 0.00 | 0.00 | 88 | 1015.6 |
| 20260508090050 | 16 | 0 | 0.0 | 3.2 | 0.00 | 0.00 | 0.00 | 88 | 1015.7 |
| 20260508085532 | 16 | 0 | 0.0 | 3.2 | 0.00 | 0.00 | 0.00 | 88 | 1015.7 |
| 20260508085031 | 16 | 200 | 0.0 | 3.2 | 0.00 | 0.00 | 0.00 | 88 | 1015.7 |
| 20260508084543 | 16 | 0 | 0.0 | 0.0 | 0.00 | 0.00 | 0.00 | 88 | 1015.8 |
| 20260508084034 | 16 | 0 | 0.0 | 1.6 | 0.00 | 0.00 | 0.00 | 88 | 1015.7 |
| 20260508083532 | 16 | 0 | 0.0 | 1.6 | 0.00 | 0.00 | 0.00 | 88 | 1015.9 |
| 20260508083048 | 16 | 0 | 0.0 | 1.6 | 0.00 | 0.00 | 0.00 | 88 | 1016.0 |
| 20260508082534 | 16 | 0 | 0.0 | 0.0 | 0.00 | 0.00 | 0.00 | 88 | 1016.0 |
| 20260508082033 | 16 | 0 | 0.0 | 0.0 | 0.00 | 0.00 | 0.00 | 88 | 1016.0 |
| 20260508081546 | 16 | 0 | 0.0 | 1.6 | 0.00 | 0.00 | 0.00 | 88 | 1016.0 |
| 20260508081031 | 16 | 0 | 0.0 | 1.6 | 0.00 | 0.00 | 0.00 | 88 | 1016.1 |
| 20260508080532 | 16 | 0 | 0.0 | 1.6 | 0.00 | 0.00 | 0.00 | 88 | 1016.1 |
| 20260508080045 | 16 | 0 | 0.0 | 1.6 | 0.00 | 0.00 | 0.00 | 88 | 1016.1 |
| 20260508075532 | 16 | 0 | 0.0 | 1.6 | 0.00 | 0.00 | 0.00 | 88 | 1016.1 |
| 20260508075033 | 16 | 0 | 0.0 | 1.6 | 0.00 | 0.00 | 0.00 | 89 | 1016.1 |
| 20260508074547 | 16 | 0 | 0.0 | 1.6 | 0.00 | 0.00 | 0.00 | 88 | 1016.2 |
| 20260508074032 | 16 | 0 | 0.0 | 3.2 | 0.00 | 0.00 | 0.00 | 89 | 1016.2 |
| 20260508073532 | 16 | 0 | 0.0 | 3.2 | 0.00 | 0.00 | 0.00 | 89 | 1016.1 |
| 20260508073053 | 16 | 0 | 0.0 | 3.2 | 0.00 | 0.00 | 0.00 | 89 | 1016.2 |
| 20260508072534 | 16 | 0 | 0.0 | 1.6 | 0.00 | 0.00 | 0.00 | 89 | 1016.3 |
| 20260508072034 | 16 | 0 | 0.0 | 1.6 | 0.00 | 0.00 | 0.00 | 89 | 1016.3 |
| 20260508071543 | 16 | 0 | 0.0 | 1.6 | 0.00 | 0.00 | 0.00 | 89 | 1016.3 |
| 20260508071032 | 16 | 0 | 0.0 | 6.4 | 0.00 | 0.00 | 0.00 | 89 | 1016.2 |
| 20260508070533 | 16 | 0 | 0.0 | 6.4 | 0.00 | 0.00 | 0.00 | 89 | 1016.3 |
| 20260508070051 | 16 | 219 | 3.2 | 6.4 | 0.00 | 0.00 | 0.00 | 89 | 1016.3 |
| 20260508065533 | 16 | 226 | 1.6 | 6.4 | 0.00 | 0.00 | 0.00 | 88 | 1016.3 |
| 20260508065035 | 16 | 221 | 0.0 | 4.8 | 0.00 | 0.00 | 0.00 | 89 | 1016.4 |